Regional Weather Roundup
Issued by NWS Sterling, VA

Home | Current Version | Previous Version | Text Only | Print | Product List | Glossary Off
Versions: 1 2 3 4 5 6 7 8 9 10 11 12 13 14 15 16 17 18 19 20 21 22 23 24 25 26 27

000
ASUS41 KLWX 230411
RWRLWX

REGIONAL WEATHER ROUNDUP
NATIONAL WEATHER SERVICE BALTIMORE MD/WASHINGTON DC
1200 AM EDT MON OCT 23 2017

Note: "FAIR" indicates few or no clouds below 12,000 feet
with no significant weather and/or obstructions to visibility.
 TC=TEMPERATURE CELSIUS

 * =Non NWS site. Station does not report precipitation (e.g. rain,
    snow, etc.), thunder, or fog.

DCZ001-MDZ009-015-VAZ040>042-051-053>054-230500-
WASHINGTON METRO

CITY           SKY/WX    TMP DP  RH WIND       PRES   REMARKS
WASHINGTON NAT MOCLDY    64  60  87 S8        30.31F
DULLES         MOCLDY    62  59  90 S3        30.30S
ANDREWS AFB    CLOUDY    59  57  92 SE5       30.29F
FT BELVOIR     PTCLDY    55  52  89 CALM      30.30F
QUANTICO       PTCLDY    65  62  90 SE5       30.31F
COLLEGE PARK*  CLOUDY    54  51  88 CALM      30.30F
LEESBURG*      CLOUDY    57  55  94 CALM      30.31S
MANASSAS*      CLOUDY    57  55  93 CALM      30.30F
GAITHERSBURG*  PTCLDY    58  53  84 SE3       30.31F

$$

MDZ006>007-011-014-230500-
BALTIMORE METRO

CITY           SKY/WX    TMP DP  RH WIND       PRES   REMARKS
BWI AIRPORT    MOCLDY    55  54  96 CALM      30.31F
MD SCIENCE CTR   N/A     65  60  84 MISG      30.31F
ANNAPOLIS      PTCLDY    66  65  96 SE9       30.30F
FORT MEADE*    MOCLDY    50  48  93 CALM      30.33F

$$

MDZ012-015-019>023-230500-
MARYLAND EASTERN SHORE

CITY           SKY/WX    TMP DP  RH WIND       PRES   REMARKS
OCEAN CITY     CLOUDY    63  63 100 CALM      30.34F
SALISBURY      MOCLDY    62  62 100 E3        30.32F
CAMBRIDGE*     FOG       59  59 100 E6        30.32F VSB 1/4
EASTON*        CLOUDY    60  57  91 CALM      30.36F

$$

MDZ017>025-230500-
SOUTHERN MARYLAND

CITY           SKY/WX    TMP DP  RH WIND       PRES   REMARKS
PATUXENT RIVER CLOUDY    67  65  93 SE9       30.30F
ST INIGOES     CLOUDY    65  63  93 E3        30.30F
LEONARDTOWN*   NOT AVBL

$$

MDZ003>005-230500-
NORTH CENTRAL MARYLAND

CITY           SKY/WX    TMP DP  RH WIND       PRES   REMARKS
FREDERICK*     PTCLDY    54  48  82 CALM      30.33S
HAGERSTOWN APT CLOUDY    64  50  60 SW5       30.29S
WESTMINSTER*   MOCLDY    61  54  77 SE9       30.31F

$$

MDZ501>502-230500-
WESTERN MARYLAND

CITY           SKY/WX    TMP DP  RH WIND       PRES   REMARKS
OAKLAND*       CLOUDY    54  48  82 SE15      30.23F
CUMBERLAND*    CLEAR     61  54  77 CALM      30.30S

$$

VAZ025>031-230500-
SHENANDOAH VALLEY

CITY           SKY/WX    TMP DP  RH WIND       PRES   REMARKS
WINCHESTER*    CLOUDY    59  52  77 S5        30.28F
FRONT ROYAL*   PTCLDY    63  54  72 CALM      30.27F
LURAY*         CLOUDY    59  55  88 CALM      30.28F
NEW MARKET*    CLEAR     56  52  84 W3        30.27F
STAUNTON*      PTCLDY    59  53  81 S5        30.31S
WAYNESBORO*    PTCLDY    56  54  92 S7        30.30F

$$

WVZ021-048>050-054>055-230500-
EASTERN WEST VIRGINIA PANHANDLE

CITY           SKY/WX    TMP DP  RH WIND       PRES   REMARKS
MARTINSBURG    CLOUDY    57  52  83 CALM      30.28S
PETERSBURG*    PTCLDY    52  49  90 CALM      30.25F

$$

VAZ036>039-050-230500-
CENTRAL FOOTHILLS

CITY           SKY/WX    TMP DP  RH WIND       PRES   REMARKS
CHARLOTTESVILL CLEAR     62  55  77 CALM      30.29F
CULPEPER*      PTCLDY    56  53  89 CALM      30.30F
ORANGE*        PTCLDY    54  54 100 CALM      30.29F
GORDONSVILLE*  PTCLDY    53  53 100 CALM      30.29F
WARRENTON*     PTCLDY    63  56  78 SE3       30.29F

$$

VAZ055>057-230500-
NORTH AND CENTRAL PIEDMONT

CITY           SKY/WX    TMP DP  RH WIND       PRES   REMARKS
FREDERICKSBRG* PTCLDY    58  58 100 CALM      30.29F
STAFFORD*      CLOUDY    54  54 100 CALM      30.34F

$$

NCZ024-NYZ072-PAZ021-071-VAZ022-071-230500-
OTHER REGIONAL OBSERVATIONS

CITY           SKY/WX    TMP DP  RH WIND       PRES   REMARKS
NEW YORK CITY  PTCLDY    62  57  83 CALM      30.40S
PHILADELPHIA   PTCLDY    59  55  87 CALM      30.35S
PITTSBURGH     CLOUDY    64  52  64 SE6       30.16F
ROANOKE        CLOUDY    57  53  86 CALM      30.29F
RICHMOND       PTCLDY    59  59 100 SE5       30.30F
RALEIGH        MOCLDY    64  61  90 SE6       30.28F

$$

ANZ530>537-230500-
MARINE OBSERVATIONS

STATION/POSITION TIME  TEMP    WIND        PRES
                       AIR SEA DIR/SP/G
                 (UTC) (F)     (DEG/KT/KT) (MB)
THOMAS PT LIGHT  0400   65 68  140/ 10/ 11   N/A
BALT KEY BRIDGE  0348   65     140/  6/  9 1026.3F
COVE POINT       0348   66     150/  7/ 10 1026.9F
LEWISETTA        0348   67 67  150/  7/  8 1025.9F
SOLOMONS ISLAND  0348   66 69  150/  2/  4 1025.9F
PINEY POINT      0342          160/ 10/ 11   N/A

$$





USA.gov is the U.S. government's official web portal to all federal, state and local government web resources and services.